Weather History for Agadir Al Massira, Morocco

Change the Weather History Date:

Monday, October 15, 2012

  Actual Average Record
Temperature  
Mean Temperature 69 °F -  
Max Temperature 79 °F - - ()
Min Temperature 59 °F - - ()
Cooling Degree Days 4    
Growing Degree Days 19 (Base 50)    
Moisture  
Dew Point 59 °F    
Average Humidity 72    
Maximum Humidity 94    
Minimum Humidity 44    
Precipitation  
Precipitation 0.00 in - - ()
Sea Level Pressure  
Sea Level Pressure 29.85 in    
Wind  
Wind Speed 3 mph ()    
Max Wind Speed 12 mph    
Max Gust Speed -    
Visibility 6.0 miles    
Events      
T = Trace of Precipitation, MM = Missing Value Source: Averaged Metar Reports

Daily Weather History Graph

Daily Weather History Graph

Search for Another Location

Airport:

Trip Planner

Search our weather history database for the weather conditions in past years. The results will help you decide how hot, cold, wet, or windy it might be!

Date:

Astronomy

Oct. 15, 2012 Rise Set
Actual Time 6:39 AM WET 6:06 PM WET
Civil Twilight 6:15 AM WET 6:30 PM WET
Nautical Twilight 5:47 AM WET 6:58 PM WET
Astronomical Twilight 5:19 AM WET 7:26 PM WET
Moon 6:31 AM WET (10/15) 6:01 PM WET (10/15)
Length of Visible Light 12h 14m
Length of Day
11h 26m
Waning Crescent, 0% of the Moon is Illuminated
Oct 15
Waning Crescent
Oct 15
New
Oct 22
First Quarter
Oct 29
Full
Nov 7
Last Quarter

Hourly Weather History & Observations

Time (WET) Temp. Dew Point Humidity Pressure Visibility Wind Dir Wind Speed Gust Speed Precip Events Conditions
12:00 AM 65 °F 59 °F 76% 29.91 in 6 mi Calm Calm - -  
12:00 AM 66.2 °F 59.0 °F 78% 29.89 in - Calm Calm - N/A   Clear
3:00 AM 62 °F 58 °F 84% 29.87 in 6 mi ESE 4.6 mph - -  
4:00 AM 62.6 °F 59.0 °F 88% 29.86 in - East 3.5 mph - N/A   Clear
5:00 AM 60.8 °F 57.2 °F 88% 29.86 in - East 3.5 mph - N/A   Clear
6:00 AM 60 °F 57 °F 87% 29.88 in 6 mi NE 3.5 mph - -  
6:00 AM 60.8 °F 57.2 °F 88% 29.86 in - NE 3.5 mph - N/A   Clear
7:00 AM 59.0 °F 57.2 °F 94% 29.86 in - Calm Calm - N/A   Clear
8:00 AM 60.8 °F 57.2 °F 88% 29.89 in - Calm Calm - N/A   Clear
9:00 AM 69 °F 61 °F 68% 29.91 in 6 mi ESE 2.3 mph - -   Clear
9:00 AM 69.8 °F 60.8 °F 73% 29.92 in - Variable 2.3 mph - N/A   Clear
10:00 AM 71.6 °F 60.8 °F 69% 29.89 in 5.0 mi Variable 2.3 mph - N/A   Scattered Clouds
11:00 AM 73.4 °F 59.0 °F 61% 29.89 in 6.2 mi Calm Calm - N/A   Scattered Clouds
12:00 PM 75 °F 60 °F 50% 29.88 in 6 mi West 2.3 mph - -   Partly Cloudy
12:00 PM 75.2 °F 60.8 °F 61% 29.89 in 6.2 mi Variable 2.3 mph - N/A   Scattered Clouds
1:00 PM 78.8 °F 59.0 °F 51% 29.83 in 6.2 mi West 3.5 mph - N/A   Partly Cloudy
2:00 PM 78.8 °F 60.8 °F 54% 29.80 in 6.2 mi West 11.5 mph - N/A   Partly Cloudy
3:00 PM 77 °F 59 °F 44% 29.80 in 6 mi West 10.4 mph - -   Scattered Clouds
3:00 PM 77.0 °F 59.0 °F 54% 29.80 in 6.2 mi West 10.4 mph - N/A   Partly Cloudy
4:00 PM 77.0 °F 59.0 °F 54% 29.80 in 6.2 mi WSW 6.9 mph - N/A   Partly Cloudy
5:00 PM 77.0 °F 59.0 °F 54% 29.80 in 6.2 mi WSW 5.8 mph - N/A   Partly Cloudy
6:00 PM 72 °F 60 °F 56% 29.80 in 6 mi West 6.9 mph - -  
6:00 PM 73.4 °F 59.0 °F 61% 29.80 in 6.2 mi West 6.9 mph - N/A   Unknown
7:00 PM 69.8 °F 60.8 °F 73% 29.80 in - WNW 6.9 mph - N/A   Clear
8:00 PM 66.2 °F 60.8 °F 83% 29.83 in - West 4.6 mph - N/A   Clear
9:00 PM 67 °F 61 °F 74% 29.84 in 6 mi Calm Calm - -  
9:00 PM 66.2 °F 60.8 °F 83% 29.83 in - West 4.6 mph - N/A   Clear
9:01 PM 66.2 °F 60.8 °F 83% 29.83 in - West 4.6 mph - N/A   Clear
10:00 PM 64.4 °F 60.8 °F 88% 29.83 in - Calm Calm - N/A   Clear
11:00 PM 64.4 °F 59.0 °F 83% 29.83 in - South 3.5 mph - N/A   Clear